Tracking 30298 objects as of 27-Apr-2025
HD Live streaming from Space Station
objects crossing your sky now

IRIDIUM 33 DEB

Track IRIDIUM 33 DEB now!
10-day predictions


NORAD ID: 34651
Int'l Code: 1997-051KC
Perigee: 712.9 km
Apogee: 933.5 km
Inclination: 86.3 °
Period: 101.2 minutes
Semi major axis: 7194 km
RCS: 0.0077 m2 (small)
Launch date: September 14, 1997
Source: United States (US)
Launch site: TYURATAM MISSILE AND SPACE COMPLEX (TTMTR)

Note: This is SATELLITE DEBRIS
Your satellite tracking list
Your tracking list is empty




NASA's NSSDC Master Catalog

Two Line Element Set (TLE):
1 34651U 97051KC  25116.79054692  .00018129  00000-0  71516-2 0  9991
2 34651  86.2838 238.0519 0153360 219.6603 139.3292 14.22756687826237
Source of the keplerian elements: AFSPC